Weather History for Brisbane Airport M. O, Queensland

Change the Weather History Date:

Tuesday, June 11, 2013

  Actual Average Record
Temperature  
Mean Temperature 66 °F -  
Max Temperature 72 °F 70 °F - ()
Min Temperature 59 °F 51 °F - ()
Growing Degree Days 16 (Base 50)    
Moisture  
Dew Point 62 °F    
Average Humidity 90    
Maximum Humidity 100    
Minimum Humidity 61    
Precipitation  
Precipitation 0.02 in 0.09 in - ()
Sea Level Pressure  
Sea Level Pressure 30.09 in    
Wind  
Wind Speed 4 mph ()    
Max Wind Speed 9 mph    
Max Gust Speed -    
Visibility 6.6 miles    
Events Rain    
T = Trace of Precipitation, MM = Missing Value Source: Averaged Metar Reports

Daily Weather History Graph

Daily Weather History Graph

Search for Another Location

Airport:

Trip Planner

Search our weather history database for the weather conditions in past years. The results will help you decide how hot, cold, wet, or windy it might be!

Date:

Astronomy

Jun. 11, 2013 Rise Set
Actual Time 6:33 AM AEST 5:00 PM AEST
Civil Twilight 6:08 AM AEST 5:25 PM AEST
Nautical Twilight 5:39 AM AEST 5:54 PM AEST
Astronomical Twilight 5:10 AM AEST 6:23 PM AEST
Moon 8:11 AM AEST (6/11) 7:14 PM AEST (6/11)
Length of Visible Light 11h 17m
Length of Day
10h 26m
Waxing Crescent, 5% of the Moon is Illuminated
Jun 11
Waxing Crescent
Jun 17
First Quarter
Jun 23
Full
Jun 30
Last Quarter
Jul 8
New

Hourly Weather History & Observations

Time (AEST) Temp. Dew Point Humidity Pressure Visibility Wind Dir Wind Speed Gust Speed Precip Events Conditions
12:00 AM 62 °F 61 °F 95% 30.16 in 4 mi South 2.3 mph - - Rain Light Drizzle
12:00 AM 62.6 °F 60.8 °F 94% 30.15 in 4.3 mi South 2.3 mph - N/A   Light Drizzle
12:30 AM 62.6 °F 60.8 °F 94% 30.12 in 5.0 mi SSW 2.3 mph - N/A   Light Drizzle
1:00 AM 61 °F 61 °F 99% 30.14 in - SSW 6.9 mph - -  
1:00 AM 60.8 °F 60.8 °F 100% 30.12 in 3.1 mi SSW 6.9 mph - N/A Rain Rain
1:30 AM 60.8 °F 60.8 °F 100% 30.12 in 5.0 mi SW 6.9 mph - N/A Rain Light Rain
2:00 AM 60.8 °F 60.8 °F 100% 30.12 in 6.2 mi SSW 5.8 mph - N/A Rain Light Rain
2:30 AM 60.8 °F 60.8 °F 100% 30.12 in 6.2 mi WSW 6.9 mph - N/A   Overcast
2:40 AM 60.8 °F 60.8 °F 100% 30.12 in 6.2 mi SW 5.8 mph - N/A   Light Drizzle
3:00 AM 60.8 °F 60.8 °F 100% 30.09 in 6.2 mi SSW 4.6 mph - N/A   Mostly Cloudy
3:30 AM 60.8 °F 60.8 °F 100% 30.09 in 6.2 mi Calm Calm - N/A   Overcast
4:00 AM 60.8 °F 60.8 °F 100% 30.09 in 6.2 mi SSW 4.6 mph - N/A   Overcast
4:30 AM 60.8 °F 60.8 °F 100% 30.09 in 6.2 mi Calm Calm - N/A   Light Drizzle
5:00 AM 60.8 °F 60.8 °F 100% 30.09 in 5.6 mi SSW 1.2 mph - N/A   Light Drizzle
5:30 AM 60.8 °F 60.8 °F 100% 30.09 in 6.2 mi SSW 4.6 mph - N/A   Mostly Cloudy
6:00 AM 60 °F 59 °F 96% 30.11 in 6 mi SW 3.5 mph - -   Mist
6:00 AM 59.0 °F 59.0 °F 100% 30.09 in 6.2 mi SW 3.5 mph - N/A   Mostly Cloudy
6:30 AM 60.8 °F 60.8 °F 100% 30.12 in 6.2 mi SSW 8.1 mph - N/A   Mostly Cloudy
7:00 AM 61 °F 60 °F 97% 30.13 in - SSW 6.9 mph - -  
7:00 AM 60.8 °F 60.8 °F 100% 30.12 in 5.0 mi SSW 6.9 mph - N/A   Light Drizzle
7:30 AM 60.8 °F 60.8 °F 100% 30.12 in 6.2 mi South 6.9 mph - N/A   Mostly Cloudy
8:00 AM 62.6 °F 60.8 °F 94% 30.12 in - SSW 9.2 mph - N/A   Clear
8:30 AM 64.4 °F 60.8 °F 88% 30.12 in 6.2 mi SSW 6.9 mph - N/A   Mostly Cloudy
9:00 AM 65 °F 61 °F 83% 30.13 in 12 mi SSW 6.9 mph - -   Mostly Cloudy
9:00 AM 64.4 °F 60.8 °F 88% 30.12 in 6.2 mi SSW 6.9 mph - N/A   Mostly Cloudy
9:30 AM 66.2 °F 62.6 °F 88% 30.12 in 6.2 mi SSW 4.6 mph - N/A   Mostly Cloudy
10:00 AM 66 °F 62 °F 85% 30.14 in - WSW 8.1 mph - -  
10:00 AM 66.2 °F 62.6 °F 88% 30.12 in 6.2 mi WSW 8.1 mph - N/A   Mostly Cloudy
10:30 AM 68.0 °F 62.6 °F 83% 30.12 in 6.2 mi WSW 5.8 mph - N/A   Mostly Cloudy
10:49 AM 66.2 °F 62.6 °F 88% 30.12 in 3.1 mi SSW 2.3 mph - N/A Rain Light Rain Showers
11:00 AM 66.2 °F 64.4 °F 94% 30.09 in 3.7 mi South 5.8 mph - N/A Rain Light Rain Showers
11:12 AM 68.0 °F 64.4 °F 88% 30.09 in 6.2 mi South 4.6 mph - N/A   Mostly Cloudy
11:30 AM 68.0 °F 62.6 °F 83% 30.09 in 6.2 mi Calm Calm - N/A   Mostly Cloudy
12:00 PM 69 °F 64 °F 78% 30.10 in 9 mi Calm Calm - -   Mostly Cloudy
12:00 PM 68.0 °F 64.4 °F 88% 30.09 in 6.2 mi Calm Calm - N/A   Scattered Clouds
12:30 PM 71.6 °F 62.6 °F 73% 30.06 in 6.2 mi Calm Calm - N/A   Scattered Clouds
1:00 PM 71 °F 64 °F 71% 30.07 in - ENE 2.3 mph - -  
1:00 PM 71.6 °F 64.4 °F 78% 30.06 in 6.2 mi ENE 2.3 mph - N/A   Scattered Clouds
1:30 PM 71.6 °F 62.6 °F 73% 30.04 in - North - - N/A   Scattered Clouds
2:00 PM 71.6 °F 62.6 °F 73% 30.04 in 6.2 mi NE 3.5 mph - N/A   Scattered Clouds
2:30 PM 71.6 °F 62.6 °F 73% 30.04 in 6.2 mi NE 5.8 mph - N/A   Scattered Clouds
3:00 PM 72 °F 61 °F 61% 30.05 in 16 mi ENE 5.8 mph - -   Mostly Cloudy
3:00 PM 71.6 °F 60.8 °F 69% 30.04 in 6.2 mi ENE 5.8 mph - N/A   Scattered Clouds
3:30 PM 69.8 °F 62.6 °F 78% 30.04 in 6.2 mi ENE 5.8 mph - N/A   Scattered Clouds
4:00 PM 69 °F 62 °F 71% 30.05 in - ENE 6.9 mph - -  
4:00 PM 68.0 °F 62.6 °F 83% 30.04 in 6.2 mi ENE 6.9 mph - N/A   Scattered Clouds
4:30 PM 68.0 °F 62.6 °F 83% 30.04 in 6.2 mi ENE 6.9 mph - N/A   Mostly Cloudy
5:00 PM 68.0 °F 62.6 °F 83% 30.04 in 6.2 mi ENE 5.8 mph - N/A   Mostly Cloudy
5:30 PM 66.2 °F 62.6 °F 88% 30.06 in 6.2 mi ENE 4.6 mph - N/A   Scattered Clouds
6:00 PM 67 °F 63 °F 83% 30.07 in 16 mi East 4.6 mph - -   Partly Cloudy
6:00 PM 66.2 °F 62.6 °F 88% 30.06 in 6.2 mi East 4.6 mph - N/A   Mostly Cloudy
6:30 PM 66.2 °F 62.6 °F 88% 30.06 in 6.2 mi ENE 3.5 mph - N/A   Mostly Cloudy
7:00 PM 67 °F 63 °F 83% 30.09 in - East 3.5 mph - -  
7:00 PM 66.2 °F 62.6 °F 88% 30.06 in 6.2 mi East 3.5 mph - N/A   Mostly Cloudy
7:30 PM 66.2 °F 64.4 °F 94% 30.09 in 6.2 mi East 4.6 mph - N/A   Mostly Cloudy
8:00 PM 66.2 °F 64.4 °F 94% 30.09 in 6.2 mi East 3.5 mph - N/A   Mostly Cloudy
8:30 PM 66.2 °F 64.4 °F 94% 30.09 in 6.2 mi East 3.5 mph - N/A   Mostly Cloudy
9:00 PM 66 °F 64 °F 93% 30.10 in 16 mi East 4.6 mph - -   Partly Cloudy
9:00 PM 66.2 °F 64.4 °F 94% 30.09 in 6.2 mi East 4.6 mph - N/A   Mostly Cloudy
9:30 PM 64.4 °F 64.4 °F 100% 30.09 in 6.2 mi East 1.2 mph - N/A   Scattered Clouds
10:00 PM 65 °F 64 °F 94% 30.10 in - Calm Calm - -  
10:00 PM 64.4 °F 64.4 °F 100% 30.09 in 6.2 mi Calm Calm - N/A   Scattered Clouds
10:30 PM 64.4 °F 64.4 °F 100% 30.06 in 6.2 mi NNE 3.5 mph - N/A   Scattered Clouds
11:00 PM 64.4 °F 62.6 °F 94% 30.06 in 6.2 mi NNE 1.2 mph - N/A   Partly Cloudy
11:30 PM 64.4 °F 62.6 °F 94% 30.06 in 6.2 mi Calm Calm - N/A   Partly Cloudy